Date String (YYYY-MM-DD hh:mm:ss) UTC,Instrument flags,Ambient pressure (hPa),Sample flow (lpm),Bypass flow (lpm),Sample temperature (°C),Ambient temperature (°C),ASC tube jacket temperature (°C),LED temperature (°C),Box temperature (°C),Sample RH (%),Span deviation,Mass concentration (μg/m³),Mass concentration (μg/m³),Mass concentration (μg/m³)
DateTimeUTC,F1_M11,P_M11,Q1_M11,Q2_M11,T1_M11,T2_M11,T3_M11,T4_M11,T5_M11,U1_M11,ZSPAN_M11,X0_M11,X2_M11,X1_M11
2022-02-20 22:00:00,,0815.8,5.01,0.00,27.3,26.6,00.0,36.2,29.1,03.3,0000.0,0001.28,0000.56,0000.41
2022-02-20 22:01:00,,0815.7,4.99,0.00,27.3,26.7,00.0,36.2,29.1,03.3,0000.0,0001.31,0000.57,0000.41
2022-02-20 22:02:00,,0815.6,5.01,0.00,27.3,26.7,00.0,36.2,29.1,03.2,0000.0,0001.12,0000.56,0000.39
2022-02-20 22:03:00,,0815.7,5.01,0.00,27.3,26.7,00.0,36.2,29.1,03.2,0000.0,0000.93,0000.54,0000.39
2022-02-20 22:04:00,,0815.7,4.99,0.00,27.3,26.7,00.0,36.2,29.2,03.2,0000.0,0000.90,0000.53,0000.39
2022-02-20 22:05:00,,0815.7,4.99,0.00,27.4,26.7,00.0,36.3,29.2,02.9,0000.0,0000.83,0000.52,0000.40
2022-02-20 22:06:00,,0815.6,5.01,0.00,27.4,26.7,00.0,36.3,29.2,02.9,0000.0,0000.85,0000.52,0000.39
2022-02-20 22:07:00,,0816.0,5.01,0.00,27.4,26.7,00.0,36.3,29.2,03.0,0000.0,0000.80,0000.49,0000.39
2022-02-20 22:08:00,,0815.8,4.99,0.00,27.4,26.7,00.0,36.3,29.2,02.8,0000.0,0000.85,0000.51,0000.40
2022-02-20 22:09:00,,0815.7,4.99,0.00,27.4,26.7,00.0,36.3,29.2,03.1,0000.0,0000.85,0000.51,0000.40
2022-02-20 22:10:00,,0815.7,4.99,0.00,27.4,26.7,00.0,36.3,29.2,03.1,0000.0,0000.84,0000.50,0000.39
2022-02-20 22:11:00,,0815.7,5.02,0.00,27.4,26.8,00.0,36.3,29.2,02.9,0000.0,0000.91,0000.53,0000.39
2022-02-20 22:12:00,,0815.7,4.99,0.00,27.4,26.8,00.0,36.3,29.3,03.1,0000.0,0000.90,0000.52,0000.39
2022-02-20 22:13:00,,0815.6,4.99,0.00,27.5,26.8,00.0,36.3,29.3,03.0,0000.0,0000.88,0000.52,0000.40
2022-02-20 22:14:00,,0815.7,5.02,0.00,27.5,26.8,00.0,36.4,29.3,02.9,0000.0,0000.91,0000.54,0000.40
2022-02-20 22:15:00,,0815.9,4.99,0.00,27.5,26.8,00.0,36.4,29.3,03.0,0000.0,0000.91,0000.55,0000.40
2022-02-20 22:16:00,,0815.7,5.00,0.00,27.5,26.8,00.0,36.4,29.3,03.1,0000.0,0000.92,0000.55,0000.40
2022-02-20 22:17:00,,0815.7,5.01,0.00,27.5,26.8,00.0,36.4,29.3,03.4,0000.0,0000.95,0000.56,0000.40
2022-02-20 22:18:00,,0815.6,4.98,0.00,27.5,26.9,00.0,36.4,29.3,03.4,0000.0,0000.96,0000.56,0000.39
2022-02-20 22:19:00,,0815.6,5.02,0.00,27.5,26.9,00.0,36.4,29.3,03.3,0000.0,0001.07,0000.57,0000.39
2022-02-20 22:20:00,,0815.7,4.99,0.00,27.5,26.9,00.0,36.4,29.3,03.0,0000.0,0000.96,0000.54,0000.38
2022-02-20 22:21:00,,0815.7,4.99,0.00,27.5,26.9,00.0,36.4,29.4,02.9,0000.0,0000.96,0000.54,0000.38
2022-02-20 22:22:00,,0815.6,5.02,0.00,27.6,26.9,00.0,36.4,29.4,03.0,0000.0,0000.92,0000.52,0000.38
2022-02-20 22:23:00,,0815.7,4.99,0.00,27.6,26.9,00.0,36.5,29.4,03.2,0000.0,0000.91,0000.52,0000.39
2022-02-20 22:24:00,,0815.8,4.99,0.00,27.6,27.0,00.0,36.5,29.4,03.1,0000.0,0000.95,0000.53,0000.39
2022-02-20 22:25:00,,0815.7,5.01,0.00,27.6,27.0,00.0,36.5,29.4,03.1,0000.0,0000.94,0000.52,0000.38
2022-02-20 22:26:00,,0815.7,5.00,0.00,27.6,27.0,00.0,36.5,29.4,03.2,0000.0,0000.90,0000.51,0000.38
2022-02-20 22:27:00,,0815.7,4.99,0.00,27.6,27.0,00.0,36.5,29.4,03.3,0000.0,0000.93,0000.52,0000.38
2022-02-20 22:28:00,,0815.7,4.99,0.00,27.6,27.0,00.0,36.5,29.4,03.3,0000.0,0000.90,0000.53,0000.37
2022-02-20 22:29:00,,0815.7,5.00,0.00,27.6,27.0,00.0,36.5,29.4,03.1,0000.0,0000.90,0000.53,0000.37
2022-02-20 22:30:00,,0815.6,5.00,0.00,27.6,27.0,00.0,36.5,29.4,03.4,0000.0,0000.87,0000.51,0000.37
2022-02-20 22:31:00,,0815.7,5.01,0.00,27.7,27.1,00.0,36.5,29.4,03.1,0000.0,0001.04,0000.52,0000.36
2022-02-20 22:32:00,,0815.6,4.99,0.00,27.7,27.1,00.0,36.6,29.4,03.1,0000.0,0001.01,0000.50,0000.36
2022-02-20 22:33:00,,0815.7,4.99,0.00,27.7,27.1,00.0,36.6,29.5,02.8,0000.0,0001.02,0000.50,0000.35
2022-02-20 22:34:00,,0815.7,5.02,0.00,27.7,27.1,00.0,36.6,29.5,03.0,0000.0,0001.00,0000.49,0000.34
2022-02-20 22:35:00,,0815.6,4.99,0.00,27.7,27.1,00.0,36.6,29.5,03.3,0000.0,0000.97,0000.48,0000.34
2022-02-20 22:36:00,,0815.7,5.00,0.00,27.7,27.1,00.0,36.6,29.5,03.5,0000.0,0001.27,0000.50,0000.34
2022-02-20 22:37:00,,0815.7,5.00,0.00,27.7,27.1,00.0,36.6,29.5,03.5,0000.0,0001.58,0000.50,0000.33
2022-02-20 22:38:00,,0815.6,4.99,0.00,27.7,27.1,00.0,36.6,29.5,03.5,0000.0,0001.48,0000.47,0000.33
2022-02-20 22:39:00,,0815.6,5.02,0.00,27.8,27.1,00.0,36.7,29.5,03.1,0000.0,0001.53,0000.48,0000.34
2022-02-20 22:40:00,,0815.7,4.99,0.00,27.8,27.2,00.0,36.7,29.6,03.3,0000.0,0001.53,0000.49,0000.34
2022-02-20 22:41:00,,0815.7,5.01,0.00,27.8,27.2,00.0,36.7,29.6,03.3,0000.0,0001.38,0000.47,0000.34
2022-02-20 22:42:00,,0815.7,5.01,0.00,27.8,27.2,00.0,36.7,29.6,03.4,0000.0,0001.24,0000.47,0000.35
2022-02-20 22:43:00,,0815.7,4.99,0.00,27.8,27.2,00.0,36.7,29.6,03.5,0000.0,0001.25,0000.48,0000.35
2022-02-20 22:44:00,,0815.7,5.00,0.00,27.8,27.2,00.0,36.7,29.6,03.4,0000.0,0001.33,0000.48,0000.36
2022-02-20 22:45:00,,0815.6,5.00,0.00,27.8,27.2,00.0,36.7,29.7,03.3,0000.0,0001.37,0000.48,0000.36
2022-02-20 22:46:00,,0815.6,4.99,0.00,27.8,27.3,00.0,36.7,29.6,03.4,0000.0,0001.41,0000.49,0000.36
2022-02-20 22:47:00,,0815.6,5.01,0.00,27.9,27.3,00.0,36.8,29.7,03.5,0000.0,0001.06,0000.47,0000.36
2022-02-20 22:48:00,,0815.7,4.99,0.00,27.9,27.3,00.0,36.8,29.7,03.5,0000.0,0000.86,0000.49,0000.36
2022-02-20 22:49:00,,0815.7,5.01,0.00,27.9,27.3,00.0,36.8,29.7,03.2,0000.0,0000.93,0000.53,0000.37
2022-02-20 22:50:00,,0815.7,5.00,0.00,27.9,27.3,00.0,36.8,29.8,03.2,0000.0,0000.92,0000.53,0000.37
2022-02-20 22:51:00,,0815.7,4.99,0.00,27.9,27.4,00.0,36.8,29.8,05.0,0000.0,0000.99,0000.59,0000.43
2022-02-20 22:52:00,,0815.7,5.01,0.00,28.0,27.4,00.0,36.8,29.8,05.9,0000.0,0001.55,0000.80,0000.57
2022-02-20 22:53:00,,0815.7,5.01,0.00,28.0,27.4,00.0,36.8,29.9,05.8,0000.0,0002.04,0001.01,0000.73
2022-02-20 22:54:00,,0815.7,4.99,0.00,28.0,27.4,00.0,36.9,29.9,05.3,0000.0,0002.55,0001.17,0000.87
2022-02-20 22:55:00,,0815.7,5.00,0.00,28.0,27.4,00.0,36.9,29.9,05.5,0000.0,0002.73,0001.33,0000.99
2022-02-20 22:56:00,,0815.8,5.03,0.00,28.0,27.4,00.0,36.9,29.9,05.6,0000.0,0002.90,0001.50,0001.13
2022-02-20 22:57:00,,0815.8,4.99,0.00,28.0,27.4,00.0,36.9,29.9,05.6,0000.0,0003.12,0001.65,0001.27
2022-02-20 22:58:00,,0815.8,5.00,0.00,28.1,27.4,00.0,36.9,29.9,04.6,0000.0,0003.21,0001.72,0001.33
2022-02-20 22:59:00,,0815.8,4.99,0.00,28.1,27.4,00.0,36.9,29.9,04.1,0000.0,0003.31,0001.73,0001.34
